Location: Bonneuil
(46.1010°N, 2.9693°E)
Time: 02:10:40
(UTC+00:00)

STARLINK-1245 - Pass Details

Date: 09 April 2020
Orbit: 548 x 551 km, 53.0° (Epoch: 05 June)

Event Time Altitude Azimuth Distance (km) Brightness Sun altitude
Rises 19:54:45 0° 298° (WNW) 2,727 9.1 -14.9°
Reaches altitude 10° 19:57:02 10° 293° (WNW) 1,830 7.7 -15.2°
Maximum altitude 20:01:03 48° 219° (SW) 720 4.2 -15.8°
Enters shadow 20:03:06 25° 157° (SSE) 1,121 4.7 -16.1°
